| time (UTC) | temp F | wind direction | speed MPH | gust MPH | rain 1hr in | rain 24hr in | rain mn in | humidity % | barometer mb |
| 20260510041230 | 76 | 72 | 10.0 | 17.0 | 0.00 | 0.00 | 0.00 | 75 | 1020.2 |
| 20260510040726 | 77 | 81 | 12.0 | 16.0 | 0.00 | 0.00 | 0.00 | 74 | 1020.6 |
| 20260510040223 | 77 | 63 | 12.0 | 16.0 | 0.00 | 0.00 | 0.00 | 74 | 1020.4 |
| 20260510035719 | 77 | 87 | 10.0 | 14.0 | 0.00 | 0.00 | 0.00 | 74 | 1020.6 |
| 20260510035215 | 77 | 89 | 12.0 | 19.0 | 0.00 | 0.00 | 0.00 | 74 | 1020.7 |
| 20260510034711 | 77 | 107 | 11.0 | 19.0 | 0.00 | 0.00 | 0.00 | 74 | 1020.8 |
| 20260510034209 | 77 | 81 | 9.0 | 15.0 | 0.00 | 0.00 | 0.00 | 75 | 1020.6 |
| 20260510033705 | 77 | 70 | 8.0 | 10.0 | 0.00 | 0.00 | 0.00 | 75 | 1020.9 |
| 20260510033203 | 77 | 169 | 7.0 | 11.0 | 0.00 | 0.00 | 0.00 | 75 | 1020.6 |
| 20260510032659 | 77 | 89 | 4.0 | 8.0 | 0.00 | 0.00 | 0.00 | 74 | 1020.8 |
| 20260510032154 | 77 | 76 | 9.0 | 13.0 | 0.00 | 0.00 | 0.00 | 74 | 1020.9 |
| 20260510031649 | 77 | 88 | 6.0 | 11.0 | 0.00 | 0.00 | 0.00 | 74 | 1020.9 |
| 20260510031147 | 77 | 71 | 9.0 | 11.0 | 0.00 | 0.00 | 0.00 | 73 | 1020.9 |
| 20260510030646 | 77 | 51 | 8.0 | 10.0 | 0.00 | 0.00 | 0.00 | 73 | 1021.0 |
| 20260510030144 | 77 | 69 | 4.0 | 15.0 | 0.00 | 0.00 | 0.00 | 73 | 1020.9 |
| 20260510025641 | 77 | 119 | 8.0 | 14.0 | 0.00 | 0.00 | 0.00 | 72 | 1021.0 |
| 20260510025138 | 77 | 82 | 12.0 | 16.0 | 0.00 | 0.00 | 0.00 | 72 | 1021.2 |
| 20260510024635 | 77 | 105 | 4.0 | 13.0 | 0.00 | 0.00 | 0.00 | 72 | 1021.2 |
| 20260510024132 | 77 | 118 | 7.0 | 13.0 | 0.00 | 0.00 | 0.00 | 72 | 1021.1 |
| 20260510023627 | 77 | 156 | 3.0 | 8.0 | 0.00 | 0.00 | 0.00 | 71 | 1021.3 |
| 20260510023125 | 77 | 81 | 10.0 | 13.0 | 0.00 | 0.00 | 0.00 | 71 | 1021.2 |
| 20260510022625 | 78 | 107 | 5.0 | 10.0 | 0.00 | 0.00 | 0.00 | 71 | 1021.1 |
| 20260510022121 | 78 | 352 | 7.0 | 16.0 | 0.00 | 0.00 | 0.00 | 71 | 1021.0 |
| 20260510021616 | 77 | 55 | 12.0 | 14.0 | 0.00 | 0.00 | 0.00 | 71 | 1020.8 |
| 20260510021114 | 77 | 58 | 9.0 | 14.0 | 0.00 | 0.00 | 0.00 | 71 | 1021.0 |
| 20260510020608 | 77 | 104 | 8.0 | 16.0 | 0.00 | 0.00 | 0.00 | 71 | 1021.0 |
| 20260510020104 | 78 | 66 | 9.0 | 16.0 | 0.00 | 0.00 | 0.00 | 70 | 1020.9 |
| 20260510015600 | 78 | 81 | 11.0 | 18.0 | 0.00 | 0.00 | 0.00 | 70 | 1020.8 |
| 20260510015057 | 78 | 94 | 9.0 | 14.0 | 0.00 | 0.00 | 0.00 | 70 | 1020.9 |
| 20260510014552 | 78 | 103 | 8.0 | 14.0 | 0.00 | 0.00 | 0.00 | 70 | 1020.7 |
| 20260510014050 | 78 | 106 | 7.0 | 9.0 | 0.00 | 0.00 | 0.00 | 70 | 1020.7 |
| 20260510013544 | 78 | 78 | 8.0 | 14.0 | 0.00 | 0.00 | 0.00 | 70 | 1020.6 |
| 20260510013040 | 78 | 61 | 10.0 | 14.0 | 0.00 | 0.00 | 0.00 | 72 | 1020.6 |
| 20260510012534 | 78 | 32 | 9.0 | 13.0 | 0.00 | 0.00 | 0.00 | 74 | 1020.6 |
| 20260510012031 | 78 | 75 | 4.0 | 11.0 | 0.00 | 0.00 | 0.00 | 76 | 1020.7 |
| 20260510011530 | 78 | 85 | 2.0 | 9.0 | 0.00 | 0.00 | 0.00 | 77 | 1020.6 |
| 20260510011026 | 78 | 96 | 4.0 | 13.0 | 0.00 | 0.00 | 0.00 | 78 | 1020.7 |
| 20260510010523 | 78 | 134 | 5.0 | 16.0 | 0.00 | 0.00 | 0.00 | 79 | 1020.6 |
| 20260510010020 | 78 | 70 | 6.0 | 8.0 | 0.00 | 0.00 | 0.00 | 79 | 1020.4 |
| 20260510005516 | 78 | 154 | 8.0 | 15.0 | 0.00 | 0.00 | 0.00 | 79 | 1020.6 |
| 20260510005014 | 78 | 62 | 9.0 | 13.0 | 0.00 | 0.00 | 0.00 | 78 | 1020.7 |
| 20260510004511 | 78 | 60 | 6.0 | 13.0 | 0.00 | 0.00 | 0.00 | 78 | 1020.4 |
| 20260510004009 | 78 | 76 | 7.0 | 11.0 | 0.00 | 0.00 | 0.00 | 77 | 1020.4 |
| 20260510003505 | 78 | 56 | 3.0 | 11.0 | 0.00 | 0.00 | 0.00 | 77 | 1020.4 |
| 20260510003001 | 78 | 43 | 4.0 | 13.0 | 0.00 | 0.00 | 0.00 | 77 | 1020.3 |
| 20260510002457 | 78 | 88 | 6.0 | 11.0 | 0.00 | 0.00 | 0.00 | 78 | 1020.3 |
| 20260510001953 | 78 | 79 | 5.0 | 10.0 | 0.00 | 0.00 | 0.00 | 78 | 1020.1 |
| 20260510001451 | 78 | 68 | 6.0 | 17.0 | 0.00 | 0.00 | 0.00 | 79 | 1020.2 |
| 20260510000949 | 78 | 80 | 9.0 | 16.0 | 0.00 | 0.00 | 0.00 | 79 | 1020.3 |
| 20260510000444 | 78 | 78 | 7.0 | 11.0 | 0.00 | 0.00 | 0.00 | 79 | 1020.0 |
| 20260509235941 | 78 | 128 | 3.0 | 18.0 | 0.00 | 0.00 | 0.00 | 79 | 1020.0 |
| 20260509235438 | 78 | 46 | 8.0 | 11.0 | 0.00 | 0.00 | 0.00 | 78 | 1020.0 |
| 20260509234934 | 78 | 60 | 10.0 | 16.0 | 0.00 | 0.00 | 0.00 | 78 | 1019.9 |
| 20260509234431 | 78 | 126 | 7.0 | 13.0 | 0.00 | 0.00 | 0.00 | 77 | 1019.8 |
| 20260509233929 | 78 | 96 | 10.0 | 15.0 | 0.00 | 0.00 | 0.00 | 77 | 1019.8 |
| 20260509233426 | 79 | 70 | 7.0 | 9.0 | 0.00 | 0.00 | 0.00 | 77 | 1019.8 |
| 20260509232922 | 79 | 95 | 7.0 | 13.0 | 0.00 | 0.00 | 0.00 | 76 | 1019.7 |
| 20260509232420 | 79 | 158 | 7.0 | 17.0 | 0.00 | 0.00 | 0.00 | 76 | 1019.6 |
| 20260509231915 | 79 | 87 | 11.0 | 15.0 | 0.00 | 0.00 | 0.00 | 76 | 1019.5 |
| 20260509231413 | 79 | 87 | 15.0 | 19.0 | 0.00 | 0.00 | 0.00 | 76 | 1019.4 |
| 20260509230911 | 79 | 76 | 12.0 | 16.0 | 0.00 | 0.00 | 0.00 | 76 | 1019.3 |
| 20260509230407 | 79 | 75 | 12.0 | 19.0 | 0.00 | 0.00 | 0.00 | 76 | 1019.3 |
| 20260509225903 | 79 | 105 | 11.0 | 17.0 | 0.00 | 0.00 | 0.00 | 76 | 1019.3 |
| 20260509225400 | 79 | 56 | 9.0 | 17.0 | 0.00 | 0.00 | 0.00 | 76 | 1019.3 |
| 20260509224856 | 79 | 152 | 13.0 | 18.0 | 0.00 | 0.00 | 0.00 | 76 | 1019.1 |
| 20260509224351 | 79 | 105 | 6.0 | 21.0 | 0.00 | 0.00 | 0.00 | 75 | 1019.2 |
| 20260509223849 | 79 | 75 | 14.0 | 16.0 | 0.00 | 0.00 | 0.00 | 75 | 1018.9 |
| 20260509223345 | 79 | 54 | 8.0 | 16.0 | 0.00 | 0.00 | 0.00 | 75 | 1019.0 |
| 20260509222843 | 79 | 88 | 12.0 | 19.0 | 0.00 | 0.00 | 0.00 | 75 | 1018.9 |
| 20260509222342 | 80 | 92 | 9.0 | 18.0 | 0.00 | 0.00 | 0.00 | 75 | 1019.3 |
| 20260509221838 | 80 | 103 | 11.0 | 18.0 | 0.00 | 0.00 | 0.00 | 75 | 1019.2 |
| 20260509221337 | 80 | 111 | 11.0 | 19.0 | 0.00 | 0.00 | 0.00 | 74 | 1019.2 |
| 20260509220836 | 80 | 67 | 9.0 | 16.0 | 0.00 | 0.00 | 0.00 | 73 | 1019.2 |
| 20260509220333 | 80 | 113 | 12.0 | 15.0 | 0.00 | 0.00 | 0.00 | 72 | 1019.0 |
| 20260509215828 | 80 | 94 | 13.0 | 16.0 | 0.00 | 0.00 | 0.00 | 70 | 1019.0 |
| 20260509215325 | 81 | 81 | 13.0 | 19.0 | 0.00 | 0.00 | 0.00 | 68 | 1019.1 |
| 20260509214822 | 81 | 74 | 13.0 | 18.0 | 0.00 | 0.00 | 0.00 | 68 | 1018.8 |
| 20260509214319 | 81 | 75 | 14.0 | 17.0 | 0.00 | 0.00 | 0.00 | 70 | 1018.9 |
| 20260509213817 | 81 | 93 | 12.0 | 14.0 | 0.00 | 0.00 | 0.00 | 71 | 1018.9 |
| 20260509213312 | 81 | 81 | 8.0 | 21.0 | 0.00 | 0.00 | 0.00 | 72 | 1018.8 |
| 20260509212810 | 81 | 153 | 6.0 | 14.0 | 0.00 | 0.00 | 0.00 | 72 | 1018.9 |
| 20260509212307 | 82 | 131 | 9.0 | 14.0 | 0.00 | 0.00 | 0.00 | 69 | 1018.9 |
| 20260509211802 | 82 | 106 | 9.0 | 16.0 | 0.00 | 0.00 | 0.00 | 68 | 1018.8 |
| 20260509211259 | 82 | 110 | 11.0 | 19.0 | 0.00 | 0.00 | 0.00 | 66 | 1018.9 |
| 20260509210755 | 82 | 140 | 12.0 | 16.0 | 0.00 | 0.00 | 0.00 | 68 | 1018.7 |
| 20260509210253 | 82 | 124 | 12.0 | 19.0 | 0.00 | 0.00 | 0.00 | 69 | 1018.8 |
| 20260509205753 | 82 | 127 | 17.0 | 21.0 | 0.00 | 0.00 | 0.00 | 71 | 1018.9 |
| 20260509205247 | 82 | 108 | 15.0 | 23.0 | 0.00 | 0.00 | 0.00 | 71 | 1018.9 |
| 20260509204743 | 82 | 128 | 13.0 | 18.0 | 0.00 | 0.00 | 0.00 | 71 | 1018.7 |
| 20260509204240 | 82 | 114 | 11.0 | 16.0 | 0.00 | 0.00 | 0.00 | 70 | 1018.7 |
| 20260509203736 | 82 | 82 | 15.0 | 16.0 | 0.00 | 0.00 | 0.00 | 69 | 1018.7 |
| 20260509203234 | 82 | 157 | 11.0 | 18.0 | 0.00 | 0.00 | 0.00 | 72 | 1018.8 |
| 20260509202730 | 82 | 152 | 16.0 | 22.0 | 0.00 | 0.00 | 0.00 | 70 | 1018.6 |
| 20260509202226 | 83 | 104 | 19.0 | 25.0 | 0.00 | 0.00 | 0.00 | 70 | 1018.9 |
| 20260509201721 | 83 | 116 | 15.0 | 19.0 | 0.00 | 0.00 | 0.00 | 68 | 1018.8 |
| 20260509201218 | 83 | 288 | 11.0 | 15.0 | 0.00 | 0.00 | 0.00 | 69 | 1018.9 |
| 20260509200714 | 83 | 107 | 14.0 | 23.0 | 0.00 | 0.00 | 0.00 | 67 | 1018.9 |
| 20260509200209 | 83 | 117 | 15.0 | 19.0 | 0.00 | 0.00 | 0.00 | 69 | 1018.9 |
| 20260509195705 | 84 | 85 | 13.0 | 23.0 | 0.00 | 0.00 | 0.00 | 68 | 1019.0 |
| 20260509195201 | 83 | 111 | 12.0 | 18.0 | 0.00 | 0.00 | 0.00 | 68 | 1018.9 |
| 20260509194700 | 83 | 93 | 16.0 | 23.0 | 0.00 | 0.00 | 0.00 | 68 | 1018.7 |
| 20260509194157 | 84 | 156 | 14.0 | 19.0 | 0.00 | 0.00 | 0.00 | 66 | 1019.0 |
| 20260509193654 | 83 | 144 | 13.0 | 18.0 | 0.00 | 0.00 | 0.00 | 67 | 1018.8 |
| 20260509193149 | 83 | 92 | 13.0 | 19.0 | 0.00 | 0.00 | 0.00 | 67 | 1019.0 |
| 20260509192646 | 84 | 82 | 17.0 | 22.0 | 0.00 | 0.00 | 0.00 | 65 | 1019.1 |
| 20260509192141 | 84 | 94 | 12.0 | 19.0 | 0.00 | 0.00 | 0.00 | 66 | 1019.0 |
| 20260509191635 | 84 | 99 | 18.0 | 25.0 | 0.00 | 0.00 | 0.00 | 67 | 1019.3 |
| 20260509191132 | 84 | 129 | 14.0 | 19.0 | 0.00 | 0.00 | 0.00 | 69 | 1019.1 |
| 20260509190628 | 84 | 119 | 13.0 | 23.0 | 0.00 | 0.00 | 0.00 | 68 | 1019.1 |
| 20260509190126 | 84 | 145 | 9.0 | 22.0 | 0.00 | 0.00 | 0.00 | 66 | 1018.8 |
| 20260509185623 | 85 | 113 | 14.0 | 19.0 | 0.00 | 0.00 | 0.00 | 65 | 1019.1 |
| 20260509185119 | 85 | 88 | 13.0 | 18.0 | 0.00 | 0.00 | 0.00 | 67 | 1019.1 |
| 20260509184618 | 85 | 111 | 11.0 | 17.0 | 0.00 | 0.00 | 0.00 | 63 | 1019.2 |
| 20260509184114 | 85 | 103 | 13.0 | 23.0 | 0.00 | 0.00 | 0.00 | 63 | 1019.1 |
| 20260509183609 | 85 | 62 | 19.0 | 23.0 | 0.00 | 0.00 | 0.00 | 63 | 1019.2 |
| 20260509183105 | 85 | 118 | 11.0 | 18.0 | 0.00 | 0.00 | 0.00 | 66 | 1019.3 |
| 20260509182602 | 86 | 212 | 14.0 | 23.0 | 0.00 | 0.00 | 0.00 | 66 | 1019.4 |
| 20260509182059 | 85 | 118 | 13.0 | 19.0 | 0.00 | 0.00 | 0.00 | 63 | 1019.5 |
| 20260509181557 | 85 | 79 | 17.0 | 22.0 | 0.00 | 0.00 | 0.00 | 62 | 1019.6 |
| 20260509181054 | 85 | 326 | 13.0 | 21.0 | 0.00 | 0.00 | 0.00 | 62 | 1019.8 |
| 20260509180549 | 86 | 129 | 14.0 | 18.0 | 0.00 | 0.00 | 0.00 | 60 | 1019.7 |
| 20260509180047 | 86 | 96 | 17.0 | 21.0 | 0.00 | 0.00 | 0.00 | 59 | 1019.7 |
| 20260509175542 | 86 | 95 | 15.0 | 21.0 | 0.00 | 0.00 | 0.00 | 60 | 1019.8 |
| 20260509175040 | 86 | 146 | 16.0 | 21.0 | 0.00 | 0.00 | 0.00 | 61 | 1019.8 |
| 20260509174536 | 85 | 139 | 15.0 | 21.0 | 0.00 | 0.00 | 0.00 | 62 | 1019.8 |
| 20260509174031 | 86 | 142 | 17.0 | 25.0 | 0.00 | 0.00 | 0.00 | 58 | 1020.1 |
| 20260509173526 | 86 | 95 | 18.0 | 23.0 | 0.00 | 0.00 | 0.00 | 60 | 1020.1 |
| 20260509173022 | 87 | 108 | 15.0 | 23.0 | 0.00 | 0.00 | 0.00 | 58 | 1020.1 |
| 20260509172520 | 86 | 87 | 18.0 | 22.0 | 0.00 | 0.00 | 0.00 | 58 | 1020.3 |
| 20260509172015 | 86 | 99 | 15.0 | 23.0 | 0.00 | 0.00 | 0.00 | 59 | 1020.4 |
| 20260509171512 | 86 | 115 | 16.0 | 22.0 | 0.00 | 0.00 | 0.00 | 59 | 1020.2 |
| 20260509171008 | 86 | 85 | 11.0 | 22.0 | 0.00 | 0.00 | 0.00 | 63 | 1020.3 |
| 20260509170504 | 86 | 91 | 18.0 | 30.0 | 0.00 | 0.00 | 0.00 | 61 | 1020.1 |
| 20260509165959 | 86 | 107 | 14.0 | 23.0 | 0.00 | 0.00 | 0.00 | 62 | 1020.5 |
| 20260509165458 | 86 | 103 | 11.0 | 19.0 | 0.00 | 0.00 | 0.00 | 62 | 1020.5 |
| 20260509164955 | 86 | 117 | 14.0 | 24.0 | 0.00 | 0.00 | 0.00 | 62 | 1020.5 |
| 20260509164450 | 86 | 85 | 13.0 | 24.0 | 0.00 | 0.00 | 0.00 | 62 | 1020.6 |
| 20260509163946 | 86 | 120 | 16.0 | 19.0 | 0.00 | 0.00 | 0.00 | 61 | 1020.5 |
| 20260509163444 | 87 | 203 | 14.0 | 21.0 | 0.00 | 0.00 | 0.00 | 62 | 1020.7 |
| 20260509162943 | 86 | 109 | 12.0 | 24.0 | 0.00 | 0.00 | 0.00 | 63 | 1020.7 |
| 20260509162442 | 86 | 112 | 13.0 | 19.0 | 0.00 | 0.00 | 0.00 | 61 | 1020.7 |
| 20260509161938 | 87 | 116 | 15.0 | 19.0 | 0.00 | 0.00 | 0.00 | 62 | 1020.8 |
| 20260509161434 | 87 | 101 | 16.0 | 23.0 | 0.00 | 0.00 | 0.00 | 64 | 1020.8 |
| 20260509160930 | 86 | 88 | 14.0 | 21.0 | 0.00 | 0.00 | 0.00 | 65 | 1020.8 |
| 20260509160426 | 87 | 100 | 13.0 | 23.0 | 0.00 | 0.00 | 0.00 | 63 | 1021.0 |
| 20260509155921 | 87 | 115 | 10.0 | 17.0 | 0.00 | 0.00 | 0.00 | 65 | 1020.8 |
| 20260509155418 | 87 | 147 | 13.0 | 24.0 | 0.00 | 0.00 | 0.00 | 62 | 1021.1 |
| 20260509154914 | 87 | 103 | 11.0 | 19.0 | 0.00 | 0.00 | 0.00 | 62 | 1021.1 |
| 20260509154411 | 86 | 132 | 14.0 | 21.0 | 0.00 | 0.00 | 0.00 | 64 | 1021.1 |
| 20260509153907 | 86 | 218 | 14.0 | 19.0 | 0.00 | 0.00 | 0.00 | 63 | 1021.2 |
| 20260509153405 | 87 | 150 | 12.0 | 17.0 | 0.00 | 0.00 | 0.00 | 63 | 1021.0 |
| 20260509152902 | 86 | 107 | 9.0 | 19.0 | 0.00 | 0.00 | 0.00 | 65 | 1021.1 |
| 20260509152357 | 86 | 165 | 12.0 | 17.0 | 0.00 | 0.00 | 0.00 | 65 | 1021.3 |
| 20260509151855 | 86 | 138 | 12.0 | 18.0 | 0.00 | 0.00 | 0.00 | 64 | 1021.2 |
| 20260509151350 | 87 | 102 | 12.0 | 22.0 | 0.00 | 0.00 | 0.00 | 63 | 1021.2 |
| 20260509150849 | 86 | 111 | 17.0 | 21.0 | 0.00 | 0.00 | 0.00 | 64 | 1021.1 |
| 20260509150347 | 87 | 128 | 13.0 | 18.0 | 0.00 | 0.00 | 0.00 | 64 | 1021.4 |
| 20260509145844 | 86 | 92 | 11.0 | 22.0 | 0.00 | 0.00 | 0.00 | 64 | 1021.3 |
| 20260509145344 | 87 | 129 | 8.0 | 21.0 | 0.00 | 0.00 | 0.00 | 63 | 1021.6 |
| 20260509144841 | 87 | 127 | 11.0 | 17.0 | 0.00 | 0.00 | 0.00 | 62 | 1021.4 |
| 20260509144338 | 87 | 177 | 8.0 | 18.0 | 0.00 | 0.00 | 0.00 | 64 | 1021.5 |
| 20260509143835 | 86 | 113 | 10.0 | 16.0 | 0.00 | 0.00 | 0.00 | 64 | 1021.3 |
| 20260509143332 | 87 | 90 | 11.0 | 22.0 | 0.00 | 0.00 | 0.00 | 60 | 1021.2 |
| 20260509142828 | 86 | 143 | 12.0 | 19.0 | 0.00 | 0.00 | 0.00 | 62 | 1021.4 |
| 20260509142324 | 87 | 182 | 11.0 | 19.0 | 0.00 | 0.00 | 0.00 | 61 | 1021.3 |
| 20260509141820 | 87 | 111 | 7.0 | 16.0 | 0.00 | 0.00 | 0.00 | 61 | 1021.3 |
| 20260509141318 | 86 | 161 | 8.0 | 13.0 | 0.00 | 0.00 | 0.00 | 61 | 1021.3 |
| 20260509140814 | 86 | 106 | 10.0 | 16.0 | 0.00 | 0.00 | 0.00 | 62 | 1021.4 |
| 20260509140311 | 86 | 73 | 17.0 | 21.0 | 0.00 | 0.00 | 0.00 | 61 | 1021.2 |
| 20260509135809 | 86 | 56 | 15.0 | 21.0 | 0.00 | 0.00 | 0.00 | 61 | 1021.2 |
| 20260509135306 | 86 | 140 | 10.0 | 22.0 | 0.00 | 0.00 | 0.00 | 61 | 1021.0 |
| 20260509134803 | 86 | 99 | 14.0 | 17.0 | 0.00 | 0.00 | 0.00 | 60 | 1021.2 |
| 20260509134301 | 86 | 96 | 13.0 | 17.0 | 0.00 | 0.00 | 0.00 | 60 | 1021.2 |
| 20260509133757 | 86 | 201 | 8.0 | 18.0 | 0.00 | 0.00 | 0.00 | 59 | 1021.1 |
| 20260509133254 | 86 | 71 | 7.0 | 15.0 | 0.00 | 0.00 | 0.00 | 59 | 1021.2 |
| 20260509132753 | 86 | 67 | 13.0 | 16.0 | 0.00 | 0.00 | 0.00 | 58 | 1021.2 |
| 20260509132251 | 86 | 149 | 11.0 | 18.0 | 0.00 | 0.00 | 0.00 | 58 | 1021.2 |
| 20260509131747 | 85 | 53 | 10.0 | 17.0 | 0.00 | 0.00 | 0.00 | 58 | 1021.1 |
| 20260509131244 | 86 | 145 | 12.0 | 16.0 | 0.00 | 0.00 | 0.00 | 58 | 1021.0 |
| 20260509130740 | 85 | 105 | 14.0 | 18.0 | 0.00 | 0.00 | 0.00 | 58 | 1021.0 |
| 20260509130236 | 85 | 89 | 8.0 | 18.0 | 0.00 | 0.00 | 0.00 | 61 | 1020.9 |
| 20260509125733 | 84 | 183 | 9.0 | 15.0 | 0.00 | 0.00 | 0.00 | 62 | 1021.0 |
| 20260509125230 | 83 | 68 | 11.0 | 14.0 | 0.00 | 0.00 | 0.00 | 62 | 1021.0 |
| 20260509124726 | 83 | 144 | 11.0 | 16.0 | 0.00 | 0.00 | 0.00 | 63 | 1020.9 |
| 20260509124223 | 83 | 91 | 14.0 | 19.0 | 0.00 | 0.00 | 0.00 | 62 | 1020.9 |
| 20260509123721 | 83 | 109 | 9.0 | 14.0 | 0.00 | 0.00 | 0.00 | 63 | 1020.9 |
| 20260509123218 | 83 | 67 | 6.0 | 18.0 | 0.00 | 0.00 | 0.00 | 63 | 1020.9 |
| 20260509122713 | 82 | 82 | 12.0 | 16.0 | 0.00 | 0.00 | 0.00 | 63 | 1020.7 |
| 20260509122211 | 82 | 104 | 10.0 | 11.0 | 0.00 | 0.00 | 0.00 | 65 | 1020.8 |
| 20260509121707 | 81 | 143 | 13.0 | 18.0 | 0.00 | 0.00 | 0.00 | 66 | 1020.7 |
| 20260509121205 | 82 | 81 | 14.0 | 19.0 | 0.00 | 0.00 | 0.00 | 64 | 1020.6 |
| 20260509120703 | 82 | 129 | 13.0 | 16.0 | 0.00 | 0.00 | 0.00 | 66 | 1020.4 |
| 20260509120201 | 81 | 108 | 8.0 | 13.0 | 0.00 | 0.00 | 0.00 | 67 | 1020.4 |
| 20260509115658 | 80 | 88 | 6.0 | 14.0 | 0.00 | 0.00 | 0.00 | 68 | 1020.4 |
| 20260509115155 | 80 | 114 | 6.0 | 10.0 | 0.00 | 0.00 | 0.00 | 69 | 1020.3 |
| 20260509114653 | 80 | 62 | 11.0 | 16.0 | 0.00 | 0.00 | 0.00 | 68 | 1020.4 |
| 20260509114152 | 80 | 65 | 7.0 | 11.0 | 0.00 | 0.00 | 0.00 | 69 | 1020.3 |
| 20260509113650 | 79 | 125 | 8.0 | 11.0 | 0.00 | 0.00 | 0.00 | 69 | 1020.4 |
| 20260509113147 | 79 | 65 | 11.0 | 16.0 | 0.00 | 0.00 | 0.00 | 69 | 1020.3 |
| 20260509112644 | 78 | 69 | 10.0 | 18.0 | 0.00 | 0.00 | 0.00 | 70 | 1020.4 |
| 20260509112141 | 78 | 81 | 12.0 | 18.0 | 0.00 | 0.00 | 0.00 | 70 | 1020.2 |
| 20260509111638 | 78 | 72 | 11.0 | 15.0 | 0.00 | 0.00 | 0.00 | 70 | 1020.2 |
| 20260509111134 | 78 | 104 | 13.0 | 18.0 | 0.00 | 0.00 | 0.00 | 71 | 1020.2 |
| 20260509110632 | 78 | 82 | 12.0 | 16.0 | 0.00 | 0.00 | 0.00 | 71 | 1020.2 |
| 20260509110129 | 77 | 92 | 10.0 | 16.0 | 0.00 | 0.00 | 0.00 | 72 | 1020.1 |
| 20260509105627 | 77 | 68 | 13.0 | 19.0 | 0.00 | 0.00 | 0.00 | 72 | 1020.2 |
| 20260509105124 | 77 | 93 | 7.0 | 15.0 | 0.00 | 0.00 | 0.00 | 73 | 1020.3 |
| 20260509104621 | 77 | 71 | 11.0 | 14.0 | 0.00 | 0.00 | 0.00 | 73 | 1020.0 |
| 20260509104117 | 76 | 93 | 10.0 | 14.0 | 0.00 | 0.00 | 0.00 | 74 | 1020.1 |
| 20260509103616 | 76 | 91 | 13.0 | 16.0 | 0.00 | 0.00 | 0.00 | 74 | 1020.1 |
| 20260509103113 | 76 | 88 | 9.0 | 13.0 | 0.00 | 0.00 | 0.00 | 74 | 1020.1 |
| 20260509102610 | 76 | 79 | 12.0 | 15.0 | 0.00 | 0.00 | 0.00 | 75 | 1019.8 |
| 20260509102107 | 75 | 85 | 8.0 | 9.0 | 0.00 | 0.00 | 0.00 | 75 | 1019.8 |
| 20260509101603 | 75 | 62 | 5.0 | 14.0 | 0.00 | 0.00 | 0.00 | 75 | 1019.8 |
| 20260509101100 | 75 | 91 | 6.0 | 13.0 | 0.00 | 0.00 | 0.00 | 75 | 1019.8 |
| 20260509100557 | 75 | 87 | 12.0 | 16.0 | 0.00 | 0.00 | 0.00 | 76 | 1019.6 |
| 20260509100055 | 75 | 88 | 9.0 | 14.0 | 0.00 | 0.00 | 0.00 | 75 | 1019.4 |
| 20260509095551 | 75 | 82 | 11.0 | 18.0 | 0.00 | 0.00 | 0.00 | 75 | 1019.5 |
| 20260509095049 | 75 | 60 | 7.0 | 10.0 | 0.00 | 0.00 | 0.00 | 75 | 1019.5 |
| 20260509094545 | 75 | 103 | 8.0 | 15.0 | 0.00 | 0.00 | 0.00 | 75 | 1019.4 |
| 20260509094043 | 75 | 75 | 10.0 | 13.0 | 0.00 | 0.00 | 0.00 | 75 | 1019.3 |
| 20260509093541 | 75 | 145 | 8.0 | 13.0 | 0.00 | 0.00 | 0.00 | 75 | 1019.2 |
| 20260509093038 | 75 | 85 | 7.0 | 11.0 | 0.00 | 0.00 | 0.00 | 75 | 1019.3 |
| 20260509092535 | 75 | 171 | 6.0 | 14.0 | 0.00 | 0.00 | 0.00 | 75 | 1019.2 |
| 20260509092034 | 75 | 90 | 7.0 | 11.0 | 0.00 | 0.00 | 0.00 | 75 | 1019.2 |
| 20260509091531 | 75 | 111 | 7.0 | 11.0 | 0.00 | 0.00 | 0.00 | 74 | 1019.3 |
| 20260509091028 | 75 | 96 | 11.0 | 15.0 | 0.00 | 0.00 | 0.00 | 75 | 1019.1 |
| 20260509090525 | 75 | 67 | 7.0 | 11.0 | 0.00 | 0.00 | 0.00 | 74 | 1019.2 |
| 20260509090023 | 75 | 267 | 4.0 | 15.0 | 0.00 | 0.00 | 0.00 | 74 | 1019.0 |
| 20260509085519 | 75 | 81 | 7.0 | 9.0 | 0.00 | 0.00 | 0.00 | 73 | 1019.1 |
| 20260509085015 | 75 | 83 | 10.0 | 13.0 | 0.00 | 0.00 | 0.00 | 73 | 1018.8 |
| 20260509084513 | 75 | 71 | 7.0 | 11.0 | 0.00 | 0.00 | 0.00 | 73 | 1018.9 |
| 20260509084010 | 75 | 82 | 8.0 | 13.0 | 0.00 | 0.00 | 0.00 | 73 | 1018.9 |
| 20260509083507 | 75 | 65 | 9.0 | 13.0 | 0.00 | 0.00 | 0.00 | 73 | 1019.2 |
| 20260509083003 | 75 | 76 | 8.0 | 13.0 | 0.00 | 0.00 | 0.00 | 73 | 1019.0 |
| 20260509082501 | 75 | 70 | 5.0 | 16.0 | 0.00 | 0.00 | 0.00 | 73 | 1019.0 |
| 20260509081958 | 75 | 74 | 9.0 | 14.0 | 0.00 | 0.00 | 0.00 | 73 | 1019.2 |
| 20260509081455 | 75 | 138 | 10.0 | 16.0 | 0.00 | 0.00 | 0.00 | 73 | 1019.0 |
| 20260509080952 | 75 | 94 | 7.0 | 16.0 | 0.00 | 0.00 | 0.00 | 73 | 1019.1 |
| 20260509080450 | 75 | 83 | 4.0 | 15.0 | 0.00 | 0.00 | 0.00 | 73 | 1018.9 |
| 20260509075948 | 75 | 77 | 10.0 | 14.0 | 0.00 | 0.00 | 0.00 | 74 | 1019.0 |
| 20260509075445 | 75 | 77 | 10.0 | 13.0 | 0.00 | 0.00 | 0.00 | 75 | 1019.1 |
| 20260509074943 | 75 | 89 | 6.0 | 9.0 | 0.00 | 0.00 | 0.00 | 75 | 1018.8 |
| 20260509074440 | 75 | 80 | 11.0 | 14.0 | 0.00 | 0.00 | 0.00 | 75 | 1019.0 |
| 20260509073936 | 75 | 85 | 6.0 | 13.0 | 0.00 | 0.00 | 0.00 | 75 | 1019.0 |
| 20260509073433 | 75 | 73 | 11.0 | 13.0 | 0.00 | 0.00 | 0.00 | 75 | 1018.7 |
| 20260509072929 | 75 | 85 | 7.0 | 16.0 | 0.00 | 0.00 | 0.00 | 76 | 1018.9 |
| 20260509072426 | 76 | 83 | 6.0 | 13.0 | 0.00 | 0.00 | 0.00 | 76 | 1018.9 |
| 20260509071922 | 76 | 77 | 9.0 | 14.0 | 0.00 | 0.00 | 0.00 | 76 | 1018.8 |
| 20260509071419 | 76 | 74 | 12.0 | 14.0 | 0.00 | 0.00 | 0.00 | 76 | 1018.8 |
| 20260509070917 | 76 | 73 | 9.0 | 15.0 | 0.00 | 0.00 | 0.00 | 76 | 1018.8 |
| 20260509070414 | 76 | 73 | 4.0 | 14.0 | 0.00 | 0.00 | 0.00 | 77 | 1018.9 |
| 20260509065909 | 76 | 93 | 10.0 | 11.0 | 0.00 | 0.00 | 0.00 | 77 | 1018.9 |
| 20260509065406 | 76 | 69 | 5.0 | 11.0 | 0.00 | 0.00 | 0.00 | 77 | 1019.1 |
| 20260509064902 | 76 | 92 | 10.0 | 14.0 | 0.00 | 0.00 | 0.00 | 77 | 1019.0 |
| 20260509064359 | 76 | 84 | 7.0 | 11.0 | 0.00 | 0.00 | 0.00 | 77 | 1019.0 |
| 20260509063857 | 76 | 123 | 9.0 | 11.0 | 0.00 | 0.00 | 0.00 | 77 | 1019.0 |
| 20260509063353 | 76 | 91 | 3.0 | 14.0 | 0.00 | 0.00 | 0.00 | 76 | 1019.0 |
| 20260509062850 | 76 | 54 | 8.0 | 11.0 | 0.00 | 0.00 | 0.00 | 76 | 1019.2 |
| 20260509062347 | 76 | 73 | 7.0 | 11.0 | 0.00 | 0.00 | 0.00 | 76 | 1019.0 |
| 20260509061844 | 76 | 105 | 9.0 | 11.0 | 0.00 | 0.00 | 0.00 | 76 | 1019.2 |
| 20260509061343 | 76 | 86 | 6.0 | 10.0 | 0.00 | 0.00 | 0.00 | 76 | 1019.1 |
| 20260509060839 | 77 | 84 | 5.0 | 10.0 | 0.00 | 0.00 | 0.00 | 75 | 1019.1 |
| 20260509060336 | 77 | 91 | 7.0 | 10.0 | 0.00 | 0.00 | 0.00 | 75 | 1019.4 |
| 20260509055831 | 76 | 97 | 8.0 | 15.0 | 0.00 | 0.00 | 0.00 | 75 | 1019.4 |
| 20260509055327 | 76 | 85 | 8.0 | 10.0 | 0.00 | 0.00 | 0.00 | 75 | 1019.5 |
| 20260509054824 | 77 | 49 | 5.0 | 8.0 | 0.00 | 0.00 | 0.00 | 75 | 1019.2 |
| 20260509054321 | 76 | 86 | 12.0 | 15.0 | 0.00 | 0.00 | 0.00 | 76 | 1019.4 |
| 20260509053819 | 76 | 67 | 5.0 | 10.0 | 0.00 | 0.00 | 0.00 | 77 | 1019.5 |
| 20260509053316 | 76 | 59 | 7.0 | 9.0 | 0.00 | 0.00 | 0.00 | 77 | 1019.5 |
| 20260509052814 | 76 | 84 | 5.0 | 8.0 | 0.00 | 0.00 | 0.00 | 77 | 1019.4 |
| 20260509052311 | 77 | 101 | 5.0 | 8.0 | 0.00 | 0.00 | 0.00 | 76 | 1019.5 |
| 20260509051809 | 77 | 96 | 8.0 | 10.0 | 0.00 | 0.00 | 0.00 | 76 | 1019.6 |
| 20260509051307 | 77 | 79 | 6.0 | 9.0 | 0.00 | 0.00 | 0.00 | 76 | 1019.9 |
| 20260509050803 | 77 | 192 | 6.0 | 10.0 | 0.00 | 0.00 | 0.00 | 76 | 1019.8 |
| 20260509050300 | 77 | 81 | 6.0 | 9.0 | 0.00 | 0.00 | 0.00 | 77 | 1020.0 |
| 20260509045757 | 77 | 62 | 6.0 | 11.0 | 0.00 | 0.00 | 0.00 | 77 | 1020.0 |
| 20260509045254 | 76 | 74 | 8.0 | 9.0 | 0.00 | 0.00 | 0.00 | 77 | 1020.1 |
| 20260509044751 | 76 | 83 | 8.0 | 9.0 | 0.00 | 0.00 | 0.00 | 78 | 1020.0 |
| 20260509044249 | 77 | 75 | 6.0 | 9.0 | 0.00 | 0.00 | 0.00 | 77 | 1020.1 |
| 20260509043745 | 77 | 62 | 4.0 | 8.0 | 0.00 | 0.00 | 0.00 | 77 | 1020.1 |
| 20260509043241 | 77 | 60 | 6.0 | 14.0 | 0.00 | 0.00 | 0.00 | 78 | 1020.2 |
| 20260509042737 | 77 | 63 | 8.0 | 11.0 | 0.00 | 0.00 | 0.00 | 78 | 1020.3 |
| 20260509042233 | 76 | 125 | 5.0 | 9.0 | 0.00 | 0.00 | 0.00 | 79 | 1020.4 |
| 20260509041730 | 76 | 73 | 8.0 | 10.0 | 0.00 | 0.00 | 0.00 | 80 | 1020.4 |